www.pogodaiklimat.ru

АРХИВ ПОГОДЫ в Гонолулу

Время (UTC), дата Ветер
(напр.,м/с)
 
Видим.   Явления Облачность Т
(С)
Тd
(С)
f
(%)
Тe
(С)
Тes
(С)
Комфортность

P
(гПа)

Po
(гПа)
Тmin
(С)
Tmax
(С)
R
(мм)
SD
(см)
08:53 23.05 СЗ  16 км    2/2 720 м  +26.1  +20.0  69  +32  +32  очень
душно 
1017.5  1017.1         
09:53 23.05   16 км    2/2 720 м  +25.6  +20.6  74  +32  +32  очень
душно 
1016.9  1016.5         
10:53 23.05 СЗ  16 км    2/2 720 м
[средняя] 
+25.6  +20.6  74  +32  +32  очень
душно 
1016.3  1015.8  +25.6  +27.8     
11:53 23.05 СЗ  16 км    2/2 660 м  +25.0  +20.6  77  +31  +31  очень
душно 
1016.2  1015.8         
12:53 23.05   16 км    2/2 660 м  +23.9  +20.6  82  +30  +30  очень
душно 
1016.0  1015.8         
13:53 23.05   16 км    2/2 660 м
[средняя] 
+23.3  +20.6  85  +31  +31  очень
душно 
1016.1  1015.8         
14:53 23.05 С  16 км    2/2 690 м  +22.8  +20.6  87  +30  +30  очень
душно 
1016.5  1016.1         
15:53 23.05 С  16 км    2/2 750 м  +23.9  +21.1  84  +30  +30  очень
душно 
1016.8  1016.5         
16:53 23.05 В  16 км    2/2 750 м  +27.2  +21.1  69  +34  +35  очень
душно 
1016.9  1016.5  +22.8  +27.2     
17:53 23.05 Ю  16 км    2/2 750 м  +28.3  +21.7  67  +36  +39  очень
душно 
1017.1  1016.8         
18:53 23.05 нст  16 км    2/2 750 м  +30.6  +20.6  55  +38  +46  очень
душно 
1017.1  1016.8         
19:53 23.05 Ю  16 км    5/5 750 м  +29.4  +22.2  65  +38  +40  очень
душно 
1016.9  1016.5         
20:53 23.05 ЮВ  16 км    2/2 750 м  +30.0  +21.7  61  +38  +42  очень
душно 
1016.8  1016.5         
21:53 23.05 Ю  16 км    2/2 750 м  +30.6  +20.0  53  +37  +46  очень
душно 
1016.7  1016.5         
22:53 23.05 Ю  16 км    5/5 750 м  +30.6  +20.6  55  +38  +43  очень
душно 
1016.4  1016.1  +26.7  +32.2     
23:53 23.05 Ю  16 км    8/8 720 м  +30.0  +21.7  61  +38  +41  очень
душно 
1016.0  1015.8         
00:53 24.05 Ю  16 км    10/10 840 м  +28.9  +21.1  63  +36  +36  очень
душно 
1015.7  1015.1         
01:00 24.05 Ю  16 км    8/8 720 м  +28.9  +21.1  63  +36  +38  очень
душно 
  1015.1         
01:53 24.05 ЮЗ  16 км    8/8 720 м  +28.9  +21.7  65  +37  +38  очень
душно 
1015.6  1015.1         
02:53 24.05 Ю  16 км    8/8 780 м  +28.3  +21.7  67  +36  +37  очень
душно 
1015.9  1015.4         
03:53 24.05 ЮЗ  16 км    8/8 720 м  +28.3  +21.7  67  +36  +36  очень
душно 
1016.5  1016.1         
04:43 24.05   16 км    8/8 750 м  +28.3  +21.7  67  +36  +36  очень
душно 
  1016.8         
04:53 24.05 СВ  16 км    8/8 720 м  +28.3  +21.1  65  +36  +36  очень
душно 
1017.4  1017.1  +27.8  +31.1     
05:53 24.05 СВ  16 км    2/2 990 м  +27.8  +20.6  65  +35  +35  очень
душно 
1018.0  1017.8         
06:53 24.05 В  16 км    2/2 780 м  +27.2  +20.6  67  +34  +34  очень
душно 
1018.4  1018.1         
07:53 24.05 В  16 км    2/2 720 м  +26.7  +20.0  67  +33  +33  очень
душно 
1018.8  1018.5         
08:53 24.05 СВ  16 км    2/2 720 м  +26.1  +19.4  67  +32  +32  очень
душно 
1018.8  1018.5         
09:53 24.05 СВ  16 км    2/2 720 м  +25.6  +19.4  69  +31  +31  очень
душно 
1018.4  1018.1         
10:53 24.05 С  16 км    2/2 720 м  +25.0  +18.9  69  +30  +30  душно  1017.8  1017.5  +25.0  +28.3     
11:53 24.05 СЗ  16 км    2/2 690 м  +24.4  +19.4  74  +30  +30  очень
душно 
1017.7  1017.5         
12:53 24.05 С  16 км    2/2 690 м  +23.9  +19.4  76  +29  +29  душно  1017.8  1017.5         
13:53 24.05 нст  16 км    ясно  +23.9  +19.4  76  +29  +29  душно  1017.7  1017.5         
14:53 24.05 С  16 км    2/2 660 м  +23.9  +20.0  79  +29  +29  душно  1018.2  1017.8         
15:53 24.05 С  16 км    5/5 660 м  +24.4  +21.1  82  +31  +31  очень
душно 
1018.7  1018.1         
16:53 24.05 С  16 км    5/5 690 м
[средняя] 
+26.7  +21.1  71  +34  +34  очень
душно 
1018.9  1018.5  +23.3  +26.7     
17:53 24.05   16 км    5/5 750 м  +28.3  +21.1  65  +36  +39  очень
душно 
1019.2  1018.8         
18:53 24.05 ЮВ  16 км    5/5 690 м  +28.9  +21.7  65  +37  +38  очень
душно 
1019.1  1018.8         
19:53 24.05 Ю  16 км    5/5 750 м  +30.0  +21.1  59  +38  +41  очень
душно 
1018.8  1018.5         
20:53 24.05 СВ  16 км  слабый дождь  8/8 750 м  +28.9  +21.1  63  +36  +39  очень
душно 
1018.8  1018.5         
21:53 24.05 С  4
{7} 
16 км    8/5 750 м
[средняя] 
+31.1  +20.0  52  +38  +41  очень
душно 
1018.0  1017.5         
22:53 24.05 СВ  5
{9} 
16 км    5/5 780 м  +31.7  +20.6  52  +39  +43  очень
душно 
1017.4  1017.1  +26.7  +31.7     
23:53 24.05 ЮВ  16 км    8/8 720 м  +29.4  +21.1  61  +37  +37  очень
душно 
1017.0  1016.8         
00:53 25.05 В  4
{9} 
16 км    5/5 720 м  +30.6  +20.6  55  +38  +41  очень
душно 
1017.0  1016.5         
01:53 25.05 СВ  16 км    2/2 720 м  +30.6  +18.9  50  +36  +38  очень
душно 
1016.9  1016.5         
02:53 25.05 В  16 км    5/2 750 м
[средняя] 
+29.4  +18.9  53  +35  +35  очень
душно 
1017.2  1016.8         
03:53 25.05 СВ  16 км    5/2 720 м
[средняя] 
+27.8  +19.4  60  +33  +34  очень
душно 
1017.7  1017.5         
04:53 25.05 СВ  16 км    2/2 1020 м  +27.2  +20.0  65  +33  +33  очень
душно 
1018.3  1017.8  +27.2  +32.2     
05:53 25.05 СВ  16 км    2/2 930 м  +27.2  +20.0  65  +33  +33  очень
душно 
1018.7  1018.5         

 

Местоположение метеостанции Honolulu International Airport: широта 21.3275 долгота -157.9431 высота над уровнем моря 3 м.

В архиве по умолчанию представлена погода в Гонолулу за последние 1-2 суток. Обновление информации о фактической погоде в базе происходит ежечасно! Архивные данные за месяц целиком и за предыдущие месяцы Вы можете получить, выбрав интересующий диапазон дат из раскрывающегося списка и нажав кнопку "Ввод!".

Внимание! Архив погоды МЕТАР в базе сайта в настоящее время начинается c 1 января 2011 г. Нет смысла пытаться выбрать более раннюю дату.

Внимание! Время в таблицах - всемирное. Для получения местного времени необходимо прибавить поправку, которая в Гонолулу равна -10 ч.

Ветер - указаны скорость ветра в м/с и направление, откуда дует ветер: С - северный, СВ - северо-восточный, В - восточный, ЮВ - юго-восточный, Ю - южный, ЮЗ - юго-западный, З - западный, СЗ - северо-западный.
Видимость - горизонтальная дальность видимости в метрах или километрах. При видимости от 1 до 10 км при отсутствии осадков обычно наблюдается дымка, при ухудшении видимости до 1 км и менее - туман. В сухую погоду видимость может ухудшаться дымом, пылью или мглою.
Атмосферные явления - указаны явления, наблюдавшиеся в указанный момент времени.
Облачность - указаны через наклонную черту верхняя и нижняя облачность в баллах и высота нижней границы облаков в метрах. Внимание: облачность, как и прочие метеорологические величины в США измеряются автоматическими метеостанциями. Указанные значения в баллах носят условный характер и показывают процент времени, в течение которого, в среднем, лазерный луч высотомера отражался от облаков обратно.
T - Температура воздуха - температура, измеренная на высоте 2 м над землей.
Td - Температура точки росы - температура, при понижении до которой содержащийся в воздухе водяной пар достигнет насыщения.
f - Относительная влажность воздуха - влажноcть воздуха, измеренная на высоте 2 м над землей.
Te - Эффективная температура - температура, которую ощущает одетый по сезону человек в тени. Характеристика душности погоды. При расчете учитывается влияние влажности воздуха и скорости ветра на теплоощущения человека.
Tes - Эффективная температура на солнце - температура, которую ощущает человек, с поправкой на солнечный нагрев. Характеристика знойности погоды. Зависит от высоты солнца над горизонтом, облачности и скорости ветра. Ночью, в пасмурную погоду, а также при ветре 12 м/с и более поправка равна нулю.
P - Атмосферное давление - приведенное к уровню моря атмосферное давление.
Po - Атмосферное давление - измеренное на уровне метеостанции атмосферное давление.
Tmin - Минимальная температура - минимум температуры воздуха на высоте 2 м над землей.
Tmax - Максимальная температура - максимум температуры воздуха на высоте 2 м над землей.
R - Количество осадков - Количество выпавших осадков за 3 или 6 часов, мм.
SD - Снежный покров - Высота снежного покрова, см.